EW9596 Weather Reports


Display with metric or nautical units.
time (UTC)temp
F
wind
direction
speed
MPH
gust
MPH
rain 1hr
in
rain 24hr
in
rain mn
in
humidity
%
barometer
mb
20260506035018 57 62 0.0 0.0 0.00 0.04 0.04 76 1009.1
20260506034519 58 62 0.0 1.0 0.00 0.04 0.04 76 1009.0
20260506034018 58 62 0.0 1.0 0.00 0.04 0.04 75 1009.2
20260506033517 58 67 0.0 0.0 0.00 0.04 0.04 75 1009.3
20260506033018 58 69 0.0 0.0 0.00 0.04 0.04 74 1009.5
20260506032516 58 69 0.0 1.0 0.00 0.04 0.04 74 1009.5
20260506032016 59 69 0.0 3.0 0.00 0.04 0.04 74 1009.5
20260506031527 59 69 0.0 6.0 0.00 0.04 0.04 74 1009.4
20260506031016 59 28 2.0 6.0 0.00 0.04 0.04 74 1009.1
20260506030519 59 304 0.0 6.0 0.00 0.04 0.04 74 1009.3
20260506030040 59 57 0.0 4.0 0.00 0.04 0.04 74 1009.5
20260506025515 60 53 2.0 6.0 0.00 0.04 0.04 75 1009.4
20260506025017 60 56 3.0 6.0 0.00 0.04 0.04 76 1009.2
20260506024524 60 24 3.0 6.0 0.00 0.04 0.04 77 1009.0
20260506024014 61 308 1.0 6.0 0.00 0.04 0.04 77 1009.3
20260506023514 61 230 2.0 7.0 0.00 0.04 0.04 78 1009.3
20260506023013 61 281 2.0 8.0 0.00 0.04 0.04 79 1009.2
20260506022512 62 355 2.0 8.0 0.00 0.04 0.04 80 1009.0
20260506022011 62 22 0.0 6.0 0.00 0.04 0.04 80 1008.9
20260506021512 62 24 2.0 6.0 0.00 0.04 0.04 80 1008.8
20260506021012 62 46 0.0 3.0 0.00 0.04 0.04 80 1008.9
20260506020515 62 44 0.0 1.0 0.00 0.04 0.04 80 1008.8
20260506020010 62 44 0.0 1.0 0.00 0.04 0.04 80 1008.7
20260506015514 62 44 0.0 0.0 0.00 0.04 0.04 80 1008.5
20260506015010 62 44 0.0 0.0 0.00 0.04 0.04 80 1008.4
20260506014509 62 44 0.0 3.0 0.00 0.04 0.04 80 1008.5
20260506014008 62 44 0.0 3.0 0.00 0.04 0.04 80 1008.5
20260506013506 62 43 0.0 2.0 0.00 0.04 0.04 81 1008.4
20260506013006 62 42 0.0 5.0 0.00 0.04 0.04 81 1008.3
20260506012505 63 49 1.0 5.0 0.00 0.04 0.04 81 1008.2
20260506012006 63 355 1.0 5.0 0.00 0.04 0.04 82 1008.0
20260506011504 63 348 1.0 5.0 0.00 0.04 0.04 82 1008.0
20260506011008 63 75 0.0 3.0 0.00 0.04 0.04 81 1007.8
20260506010503 63 277 0.0 2.0 0.00 0.04 0.04 81 1007.8
20260506010005 63 273 0.0 3.0 0.00 0.04 0.04 80 1007.9
20260506005505 63 273 0.0 3.0 0.00 0.04 0.04 80 1007.7
20260506005001 63 246 0.0 0.0 0.00 0.04 0.04 79 1007.3
20260506004505 63 246 0.0 0.0 0.00 0.04 0.04 78 1007.1
20260506004001 63 246 0.0 0.0 0.00 0.04 0.04 77 1007.0
20260506003501 63 246 0.0 0.0 0.00 0.04 0.04 77 1006.9
20260506003100 64 246 0.0 0.0 0.00 0.04 0.04 77 1006.9
20260506002601 64 246 0.0 0.0 0.00 0.04 0.04 77 1006.9
20260506002100 64 246 0.0 0.0 0.00 0.04 0.04 77 1006.8
20260506001602 64 246 0.0 0.0 0.00 0.04 0.04 77 1006.9
20260506001100 64 246 0.0 0.0 0.00 0.04 0.04 77 1006.8
20260506000600 65 246 0.0 0.0 0.00 0.04 0.04 77 1006.8
20260506000006 65 246 0.0 0.0 0.00 0.04 0.04 76 1006.7
20260505235559 65 246 0.0 0.0 0.00 0.04 0.04 76 1006.7
20260505235059 65 246 0.0 0.0 0.00 0.04 0.04 76 1006.7
20260505234601 65 246 0.0 0.0 0.00 0.04 0.04 76 1006.7
20260505234502 65 246 0.0 0.0 0.00 0.04 0.04 76 1006.8
20260505234059 65 246 0.0 0.0 0.00 0.04 0.04 76 1006.8
20260505234001 65 246 0.0 0.0 0.00 0.04 0.04 76 1006.8
20260505233558 66 246 0.0 0.0 0.00 0.04 0.04 76 1006.8
20260505233123 66 246 0.0 0.0 0.00 0.04 0.04 76 1006.8
20260505232558 66 246 0.0 0.0 0.00 0.04 0.04 76 1006.8
20260505232058 66 246 0.0 0.0 0.00 0.04 0.04 75 1006.8
20260505231558 66 246 0.0 0.0 0.00 0.04 0.04 75 1006.8
20260505231103 66 246 0.0 0.0 0.00 0.04 0.04 75 1006.8
20260505230557 67 246 0.0 0.0 0.00 0.04 0.04 74 1006.7
20260505230057 67 246 0.0 0.0 0.00 0.04 0.04 74 1006.6
20260505225557 67 246 0.0 0.0 0.00 0.04 0.04 73 1006.7
20260505225058 67 246 0.0 0.0 0.00 0.04 0.04 73 1006.7
20260505224557 67 246 0.0 0.0 0.00 0.04 0.04 73 1006.6
20260505224101 67 246 0.0 0.0 0.00 0.04 0.04 73 1006.5
20260505223557 67 246 0.0 1.0 0.00 0.04 0.04 72 1006.5
20260505223056 68 246 0.0 1.0 0.00 0.04 0.04 72 1006.5
20260505222556 68 246 0.0 3.0 0.00 0.04 0.04 72 1006.4
20260505222056 68 246 0.0 4.0 0.00 0.04 0.04 72 1006.3
20260505221602 68 247 2.0 7.0 0.00 0.04 0.04 71 1006.3
20260505221058 68 257 2.0 6.0 0.00 0.04 0.04 71 1006.8
20260505220554 68 234 1.0 5.0 0.00 0.04 0.04 71 1006.7
20260505220055 68 227 1.0 5.0 0.00 0.04 0.04 71 1006.4
20260505215554 68 273 0.0 0.0 0.00 0.04 0.04 70 1006.1
20260505215054 68 273 0.0 0.0 0.00 0.04 0.04 70 1005.8
20260505214554 68 269 0.0 0.0 0.00 0.04 0.04 70 1006.0
20260505214054 68 269 0.0 2.0 0.00 0.04 0.04 70 1006.0
20260505213553 68 273 0.0 2.0 0.00 0.04 0.04 71 1006.0
20260505213057 68 183 0.0 3.0 0.00 0.04 0.04 71 1005.8
20260505212553 68 183 0.0 3.0 0.00 0.04 0.04 71 1005.7
20260505212053 68 184 0.0 5.0 0.00 0.04 0.04 72 1005.8
20260505211553 68 170 2.0 5.0 0.00 0.04 0.04 72 1005.8
20260505211052 67 292 1.0 4.0 0.00 0.04 0.04 73 1005.8
20260505210555 67 132 0.0 4.0 0.00 0.04 0.04 74 1005.7
20260505210051 67 134 1.0 4.0 0.00 0.04 0.04 74 1005.7
20260505205552 67 218 1.0 5.0 0.00 0.04 0.04 76 1005.8
20260505205055 66 237 2.0 5.0 0.00 0.04 0.04 77 1005.9
20260505204551 66 171 0.0 7.0 0.00 0.04 0.04 77 1006.0
20260505204051 66 157 1.0 7.0 0.02 0.04 0.04 77 1006.0
20260505203553 66 203 0.0 4.0 0.02 0.04 0.04 77 1006.2
20260505203055 66 192 0.0 3.0 0.02 0.04 0.04 76 1006.3
20260505202548 66 208 1.0 4.0 0.02 0.04 0.04 75 1006.3
20260505202050 66 180 0.0 4.0 0.02 0.04 0.04 74 1006.3
20260505201551 67 244 0.0 4.0 0.02 0.04 0.04 73 1006.3
20260505201049 67 175 0.0 3.0 0.02 0.04 0.04 72 1006.3
20260505200549 67 178 0.0 7.0 0.02 0.04 0.04 71 1006.4
20260505200048 68 161 2.0 7.0 0.02 0.04 0.04 70 1006.2
20260505195548 68 216 0.0 17.0 0.02 0.04 0.04 68 1006.2
20260505195048 69 272 2.0 24.0 0.02 0.04 0.04 66 1006.5
20260505194555 71 230 8.0 37.0 0.02 0.04 0.04 61 1006.5
20260505194047 76 271 15.0 34.0 0.00 0.02 0.02 50 1006.4
20260505193546 78 215 10.0 23.0 0.00 0.02 0.02 36 1005.1
20260505193103 79 262 3.0 16.0 0.00 0.02 0.02 34 1004.5
20260505192546 79 215 5.0 16.0 0.00 0.02 0.02 33 1004.2
20260505192047 80 220 7.0 16.0 0.00 0.02 0.02 32 1004.1
20260505191546 80 259 5.0 24.0 0.00 0.02 0.02 33 1003.9
20260505191045 81 150 8.0 28.0 0.00 0.02 0.02 32 1003.9
20260505190545 81 254 15.0 28.0 0.00 0.02 0.02 32 1003.8
20260505190046 80 232 4.0 18.0 0.00 0.02 0.02 37 1003.9
20260505185545 79 250 7.0 17.0 0.00 0.02 0.02 38 1004.0
20260505185041 79 200 6.0 15.0 0.00 0.02 0.02 39 1004.1
20260505184540 78 230 5.0 15.0 0.00 0.02 0.02 40 1004.4
20260505184043 78 261 6.0 19.0 0.00 0.02 0.02 38 1004.6
20260505183539 78 350 7.0 19.0 0.00 0.02 0.02 40 1004.6
20260505183039 77 293 8.0 16.0 0.00 0.02 0.02 42 1004.7
20260505182538 77 263 3.0 16.0 0.00 0.02 0.02 45 1004.7
20260505182038 76 261 6.0 12.0 0.00 0.02 0.02 50 1004.9
20260505181536 76 211 3.0 9.0 0.00 0.02 0.02 52 1004.9
20260505181036 76 251 4.0 9.0 0.00 0.02 0.02 53 1005.2
20260505180534 76 217 2.0 9.0 0.00 0.02 0.02 54 1005.4
20260505180039 76 181 5.0 12.0 0.00 0.02 0.02 54 1005.5
20260505175534 76 218 4.0 18.0 0.00 0.02 0.02 51 1005.8
20260505175033 77 256 9.0 19.0 0.00 0.02 0.02 45 1005.8
20260505174533 77 228 7.0 15.0 0.00 0.02 0.02 44 1005.7
20260505174033 77 247 5.0 15.0 0.00 0.02 0.02 45 1005.7
20260505173533 76 214 9.0 18.0 0.00 0.02 0.02 45 1005.7
20260505173131 76 223 9.0 18.0 0.00 0.02 0.02 44 1005.6
20260505172532 77 230 7.0 16.0 0.00 0.02 0.02 44 1005.8
20260505172031 77 217 4.0 16.0 0.00 0.02 0.02 44 1005.8
20260505171531 77 235 3.0 13.0 0.00 0.02 0.02 43 1005.8
20260505171032 77 219 5.0 20.0 0.00 0.02 0.02 44 1005.8
20260505170532 78 278 8.0 20.0 0.00 0.02 0.02 43 1005.5
20260505170034 78 237 6.0 14.0 0.00 0.02 0.02 43 1005.5
20260505165531 78 292 5.0 19.0 0.00 0.02 0.02 43 1005.2
20260505165031 78 259 7.0 19.0 0.00 0.02 0.02 42 1005.4
20260505164537 78 13 4.0 18.0 0.00 0.02 0.02 43 1005.2
20260505164031 78 194 7.0 14.0 0.00 0.02 0.02 43 1005.4
20260505163530 78 130 6.0 12.0 0.00 0.02 0.02 43 1005.4
20260505163036 78 209 7.0 12.0 0.00 0.02 0.02 42 1005.6
20260505162528 78 292 3.0 16.0 0.00 0.02 0.02 41 1005.6
20260505162030 78 224 5.0 16.0 0.00 0.02 0.02 42 1005.8
20260505161527 78 228 5.0 20.0 0.00 0.02 0.02 42 1005.9
20260505161027 78 152 8.0 20.0 0.00 0.02 0.02 41 1005.9
20260505160529 78 227 7.0 18.0 0.00 0.02 0.02 41 1005.9
20260505153029 78 203 6.0 18.0 0.00 0.02 0.02 42 1006.0
20260505152522 78 331 6.0 19.0 0.00 0.02 0.02 41 1006.0
20260505152029 78 229 7.0 19.0 0.00 0.02 0.02 42 1006.0
20260505151522 78 281 6.0 14.0 0.00 0.02 0.02 43 1006.0
20260505151020 77 275 5.0 14.0 0.00 0.02 0.02 45 1006.0
20260505150519 77 234 5.0 12.0 0.00 0.02 0.02 44 1006.1
20260505140508 73 304 4.0 21.0 0.00 0.02 0.02 48 1006.2
20260505124552 63 279 2.0 6.0 0.01 0.02 0.02 69 1007.5
20260505124050 63 347 1.0 6.0 0.01 0.02 0.02 70 1007.4
20260505123555 63 314 2.0 8.0 0.01 0.02 0.02 71 1007.3
20260505123058 62 166 1.0 8.0 0.01 0.02 0.02 69 1007.3
20260505122549 62 11 1.0 5.0 0.01 0.02 0.02 71 1007.1
20260505122050 62 336 1.0 9.0 0.01 0.02 0.02 71 1007.2
20260505121549 61 252 2.0 9.0 0.02 0.02 0.02 72 1007.2
20260505121052 61 20 2.0 5.0 0.01 0.01 0.01 74 1007.1
20260505120548 61 11 0.0 4.0 0.01 0.01 0.01 74 1007.2
20260505120055 61 287 0.0 4.0 0.01 0.01 0.01 71 1007.3
20260505115547 61 328 1.0 4.0 0.01 0.01 0.01 72 1007.2
20260505115047 61 289 1.0 6.0 0.01 0.01 0.01 71 1006.9
20260505114550 61 252 1.0 9.0 0.01 0.01 0.01 71 1007.0
20260505114046 61 229 4.0 9.0 0.01 0.01 0.01 71 1006.9
20260505113549 62 207 2.0 27.0 0.01 0.01 0.01 70 1006.7
20260505113051 62 123 7.0 27.0 0.01 0.01 0.01 69 1006.9
20260505112546 62 223 0.0 6.0 0.01 0.01 0.01 69 1007.7
20260505112045 62 165 1.0 11.0 0.01 0.01 0.01 68 1007.5
20260505111546 61 191 5.0 11.0 0.00 0.00 0.00 67 1007.7
20260505111043 61 248 2.0 7.0 0.00 0.00 0.00 66 1007.6
20260505110543 61 259 0.0 7.0 0.00 0.00 0.00 65 1007.5
20260505102039 59 313 0.0 5.0 0.00 0.00 0.00 69 1007.1
20260505101539 58 320 1.0 8.0 0.00 0.00 0.00 69 1007.0
20260505101036 58 254 1.0 8.0 0.00 0.00 0.00 70 1006.8
20260505100536 57 262 1.0 7.0 0.00 0.00 0.00 71 1006.8
20260505100038 57 229 1.0 9.0 0.00 0.00 0.00 70 1006.8
20260505095536 56 109 1.0 9.0 0.00 0.00 0.00 71 1006.8
20260505095035 56 273 2.0 6.0 0.00 0.00 0.00 70 1006.7
20260505094535 56 11 0.0 5.0 0.00 0.00 0.00 70 1006.5
20260505094034 56 17 1.0 4.0 0.00 0.00 0.00 69 1006.5
20260505093534 56 65 0.0 3.0 0.00 0.00 0.00 69 1006.5
20260505093033 56 117 0.0 4.0 0.00 0.00 0.00 69 1006.5
20260505092533 56 117 1.0 4.0 0.00 0.00 0.00 68 1006.5
20260505092032 56 53 0.0 4.0 0.00 0.00 0.00 68 1006.5
20260505091532 56 53 1.0 4.0 0.00 0.00 0.00 68 1006.4
20260505091033 57 44 0.0 1.0 0.00 0.00 0.00 67 1006.4
20260505090530 57 44 0.0 4.0 0.00 0.00 0.00 67 1006.4
20260505090029 57 44 1.0 4.0 0.00 0.00 0.00 66 1006.3
20260505085529 57 58 0.0 3.0 0.00 0.00 0.00 66 1006.4
20260505085028 57 105 0.0 0.0 0.00 0.00 0.00 65 1006.4
20260505084542 58 132 0.0 0.0 0.00 0.00 0.00 64 1006.4
20260505084025 58 132 0.0 0.0 0.00 0.00 0.00 64 1006.4
20260505083529 58 130 0.0 0.0 0.00 0.00 0.00 64 1006.3
20260505083041 58 130 0.0 0.0 0.00 0.00 0.00 63 1006.3
20260505082523 59 129 0.0 0.0 0.00 0.00 0.00 62 1006.3
20260505082022 59 107 0.0 0.0 0.00 0.00 0.00 62 1006.3
20260505081525 59 107 0.0 0.0 0.00 0.00 0.00 61 1006.4
20260505081020 60 107 0.0 0.0 0.00 0.00 0.00 61 1006.4
20260505080519 60 105 0.0 0.0 0.00 0.00 0.00 61 1006.4
20260505080032 60 105 0.0 0.0 0.00 0.00 0.00 60 1006.5
20260505075518 61 105 0.0 0.0 0.00 0.00 0.00 59 1006.5
20260505075016 61 105 0.0 3.0 0.00 0.00 0.00 59 1006.5
20260505074518 61 106 1.0 3.0 0.00 0.00 0.00 58 1006.5
20260505074014 62 114 0.0 3.0 0.00 0.00 0.00 57 1006.5
20260505073514 62 82 1.0 2.0 0.00 0.00 0.00 56 1006.5
20260505073023 62 81 0.0 3.0 0.00 0.00 0.00 56 1006.4
20260505072510 63 82 0.0 3.0 0.00 0.00 0.00 55 1006.4
20260505072010 63 5 0.0 3.0 0.00 0.00 0.00 54 1006.5
20260505071509 63 201 1.0 5.0 0.00 0.00 0.00 54 1006.5
20260505071009 63 355 0.0 0.0 0.00 0.00 0.00 53 1006.5
20260505070508 64 350 0.0 1.0 0.00 0.00 0.00 54 1006.5
20260505070007 64 333 0.0 5.0 0.00 0.00 0.00 52 1006.5
20260505065507 64 242 2.0 6.0 0.00 0.00 0.00 51 1006.6
20260505065006 64 321 1.0 6.0 0.00 0.00 0.00 51 1006.6
20260505064505 64 350 1.0 5.0 0.00 0.00 0.00 51 1006.6
20260505064005 64 355 2.0 9.0 0.00 0.00 0.00 51 1006.6
20260505063505 64 348 2.0 9.0 0.00 0.00 0.00 50 1006.6
20260505063004 64 270 2.0 8.0 0.00 0.00 0.00 50 1006.6
20260505062504 64 167 1.0 7.0 0.00 0.00 0.00 50 1006.6
20260505062003 64 130 3.0 13.0 0.00 0.00 0.00 50 1006.6
20260505061503 64 123 4.0 13.0 0.00 0.00 0.00 49 1006.5
20260505061003 64 323 2.0 10.0 0.00 0.00 0.00 50 1006.5
20260505060502 64 172 5.0 10.0 0.00 0.00 0.00 50 1006.5
20260505060105 64 218 2.0 8.0 0.00 0.00 0.00 50 1006.6
20260505055502 64 300 3.0 7.0 0.00 0.00 0.00 49 1006.6
20260505055002 64 338 2.0 7.0 0.00 0.00 0.00 49 1006.7
20260505054501 64 231 1.0 12.0 0.00 0.00 0.00 49 1006.7
20260505054003 64 303 4.0 12.0 0.00 0.00 0.00 49 1006.7
20260505053601 64 355 1.0 8.0 0.00 0.00 0.00 49 1006.6
20260505053107 64 111 1.0 4.0 0.00 0.00 0.00 49 1006.8
20260505052600 64 254 2.0 7.0 0.00 0.00 0.00 49 1006.8
20260505052100 64 156 2.0 8.0 0.00 0.00 0.00 49 1006.8
20260505051700 64 195 1.0 7.0 0.00 0.00 0.00 49 1006.7
20260505051058 64 184 1.0 8.0 0.00 0.00 0.00 49 1006.8
20260505050559 64 237 4.0 9.0 0.00 0.00 0.00 49 1006.8
20260505041602 64 298 2.0 5.0 0.00 0.00 0.00 49 1006.5
20260505041054 64 311 1.0 9.0 0.00 0.00 0.00 49 1006.6
20260505040554 64 23 1.0 10.0 0.00 0.00 0.00 49 1006.6
20260505040056 64 24 3.0 10.0 0.00 0.00 0.00 49 1006.6
20260505035551 64 15 1.0 9.0 0.00 0.00 0.00 49 1006.6